GLOBALSTAR M001 1 25162U 98008A 26036.42762368 -.00000058 00000+0 29301-3 0 9997 2 25162 52.0058 14.3483 0001715 35.9115 135.0563 12.38226839272603 GLOBALSTAR M004 1 25163U 98008B 26036.36695806 -.00000078 00000+0 14286-3 0 9991 2 25163 52.0006 62.7660 0003511 91.2738 282.3818 12.63414095291165 GLOBALSTAR M002 1 25164U 98008C 26036.38023917 -.00000082 00000+0 -10139-3 0 9991 2 25164 52.0042 15.5073 0001253 205.9481 154.1276 11.61515062211169 GLOBALSTAR M003 1 25165U 98008D 26036.27786381 -.00000199 00000+0 -11658-2 0 9996 2 25165 51.9856 242.9184 0008881 45.1090 127.4508 12.12030252261485 GLOBALSTAR M014 1 25306U 98023A 26036.42739929 -.00000051 00000+0 50265-3 0 9997 2 25306 51.9849 293.7125 0001815 65.3312 105.6419 11.65484268218369 GLOBALSTAR M006 1 25307U 98023B 26036.35135528 -.00000079 00000+0 -72697-4 0 9990 2 25307 51.9973 355.0900 0002876 166.4691 2.2822 11.58176392243841 GLOBALSTAR M015 1 25308U 98023C 26036.21726968 -.00000122 00000+0 -11022-2 0 9992 2 25308 51.9820 104.5767 0013313 131.1625 261.9026 11.48861738220866 GLOBALSTAR M008 1 25309U 98023D 26036.51311493 -.00000083 00000+0 10594-3 0 9998 2 25309 51.9946 241.5774 0002057 327.6155 46.0907 12.36080390266707 GLOBALSTAR M023 1 25621U 99004A 26036.10746653 -.00000050 00000+0 29702-3 0 9995 2 25621 52.0110 64.1859 0009364 281.4493 113.4504 12.62516673245157 GLOBALSTAR M040 1 25622U 99004B 26036.32641574 -.00000083 00000+0 11770-3 0 9998 2 25622 51.9920 68.0160 0001181 165.0644 207.9941 12.62028279244699 GLOBALSTAR M036 1 25623U 99004C 26036.31353865 -.00000038 00000+0 64844-3 0 9991 2 25623 52.0000 345.8378 0010690 135.6237 22.3971 11.86618540206651 GLOBALSTAR M038 1 25624U 99004D 26036.47759243 -.00000051 00000+0 36274-3 0 9990 2 25624 51.9971 119.7138 0002316 164.4822 208.1535 12.32540507231146 GLOBALSTAR M022 1 25649U 99012A 26036.42091897 -.00000082 00000+0 53036-4 0 9995 2 25649 52.0066 16.8587 0002445 273.4064 250.1408 12.02509361204435 GLOBALSTAR M041 1 25650U 99012B 26036.09030867 -.00000075 00000+0 13298-3 0 9997 2 25650 52.0004 266.3138 0002230 69.7608 290.3468 11.96683564206169 GLOBALSTAR M046 1 25651U 99012C 26036.51588568 -.00000024 00000+0 71702-3 0 9999 2 25651 52.0080 318.2211 0002286 10.4467 160.1985 12.09417278211896 GLOBALSTAR M037 1 25652U 99012D 26036.41033965 -.00000080 00000+0 13132-3 0 9990 2 25652 51.9984 193.7944 0001790 15.8669 7.2749 12.62461139240737 GLOBALSTAR M045 1 25676U 99019A 26036.33707447 -.00000053 00000+0 35826-3 0 9991 2 25676 51.9995 0.7355 0000382 25.5050 139.9171 12.27072453222017 GLOBALSTAR M019 1 25677U 99019B 26036.37337939 .00000022 00000+0 11672-2 0 9998 2 25677 51.9864 147.4094 0002099 89.8522 312.0314 12.13880079213464 GLOBALSTAR M044 1 25678U 99019C 26036.29618965 -.00000123 00000+0 -54688-3 0 9990 2 25678 51.9965 128.1449 0006855 128.3471 265.7579 11.90263104199089 GLOBALSTAR M042 1 25679U 99019D 26036.47800588 -.00000107 00000+0 -13892-3 0 9999 2 25679 52.0012 112.3604 0003235 72.0185 301.0760 12.22095354213785 GLOBALSTAR M025 1 25770U 99031A 26036.54158316 -.00000073 00000+0 -17528-3 0 9990 2 25770 51.9853 338.6884 0001955 157.8390 13.6328 11.22561146507911 GLOBALSTAR M049 1 25771U 99031B 26036.41131177 -.00000014 00000+0 17835-2 0 9997 2 25771 51.9899 25.4697 0002892 55.3862 304.7207 11.12121869143371 GLOBALSTAR M047 1 25772U 99031C 26036.28099995 -.00000061 00000+0 23938-3 0 9998 2 25772 51.9868 0.4664 0016317 304.2839 55.6422 11.31931967497509 GLOBALSTAR M052 1 25773U 99031D 26036.29549314 -.00000086 00000+0 -68447-3 0 9997 2 25773 51.9859 131.1305 0003011 181.5395 211.0636 11.15063575504512 GLOBALSTAR M035 1 25851U 99037A 26036.09157853 -.00000015 00000+0 18297-2 0 9999 2 25851 51.9920 255.5669 0013899 4.5647 160.7502 11.04542038121994 GLOBALSTAR M032 1 25852U 99037B 26036.37620688 -.00000134 00000+0 -21452-2 0 9992 2 25852 51.9958 64.0380 0012795 199.1139 160.9182 11.19067965160895 GLOBALSTAR M051 1 25853U 99037C 26036.45104978 -.00000083 00000+0 -26490-3 0 9992 2 25853 51.9765 198.1703 0001152 97.8516 262.2425 11.42200079159040 GLOBALSTAR M030 1 25854U 99037D 26036.20741149 -.00000109 00000+0 -72799-3 0 9995 2 25854 51.9913 350.0439 0003767 92.9799 267.1449 11.55108255176972 GLOBALSTAR M048 1 25872U 99041A 26036.28260911 -.00000056 00000+0 38206-3 0 9996 2 25872 51.9359 142.6210 0013062 224.1658 161.9097 11.33861932151427 GLOBALSTAR M026 1 25873U 99041B 26036.35187112 -.00000172 00000+0 -39871-2 0 9994 2 25873 52.0047 10.4805 0001817 306.1377 205.4714 11.06840492174300 GLOBALSTAR M043 1 25874U 99041C 26036.38525259 -.00000042 00000+0 77764-3 0 9995 2 25874 51.9376 259.3158 0013584 353.5350 177.8905 11.25697778149135 GLOBALSTAR M028 1 25875U 99041D 26036.53036316 -.00000098 00000+0 10836-4 0 9993 2 25875 51.9599 217.2682 0062760 217.5149 142.1323 12.50595666219378 GLOBALSTAR M024 1 25883U 99043A 26036.38434231 -.00000014 00000+0 17940-2 0 9994 2 25883 51.9975 214.4457 0002662 107.1288 255.7314 11.10168903140769 GLOBALSTAR M027 1 25884U 99043B 26036.02239408 -.00000072 00000+0 -31287-3 0 9991 2 25884 52.0229 299.8456 0021794 8.7215 351.3953 11.04373570166966 GLOBALSTAR M054 1 25885U 99043C 26036.36510566 -.00000077 00000+0 -15385-3 0 9992 2 25885 52.0162 27.2419 0004730 217.7383 286.9576 11.39223536145622 GLOBALSTAR M053 1 25886U 99043D 26036.21887401 -.00000052 00000+0 49637-3 0 9991 2 25886 52.0021 347.6192 0003557 111.7705 26.7095 11.27669794145736 GLOBALSTAR M058 1 25907U 99049A 26036.44134395 -.00000088 00000+0 -49404-4 0 9996 2 25907 51.9912 206.3188 0002189 26.0388 334.0557 11.93208168569384 GLOBALSTAR M050 1 25908U 99049B 26036.48397193 -.00000022 00000+0 74363-3 0 9996 2 25908 51.9960 196.4500 0010011 132.8266 261.3122 12.07464606176379 GLOBALSTAR M033 1 25909U 99049C 26036.05425390 -.00000046 00000+0 43990-3 0 9999 2 25909 51.9919 53.3794 0014239 24.8781 335.2750 12.20302374564173 GLOBALSTAR M055 1 25910U 99049D 26036.01896969 -.00000083 00000+0 99818-4 0 9993 2 25910 52.0027 52.8860 0006786 253.7063 106.3042 12.29440296196929 GLOBALSTAR M057 1 25943U 99058A 26036.34396706 -.00000062 00000+0 28392-3 0 9994 2 25943 51.9994 46.4986 0002679 131.2280 228.8801 12.24832913195504 GLOBALSTAR M059 1 25944U 99058B 26036.08953049 -.00000014 00000+0 89680-3 0 9999 2 25944 52.0030 297.0926 0001099 65.8115 73.9632 11.99992724602007 GLOBALSTAR M056 1 25945U 99058C 26036.41333501 -.00000102 00000+0 -17508-3 0 9991 2 25945 51.9971 292.1991 0000650 339.9852 191.6056 12.04784288190734 GLOBALSTAR M031 1 25946U 99058D 26036.52261376 .00000020 00000+0 11169-2 0 9997 2 25946 51.9946 170.2467 0000367 312.3907 125.2479 12.16048807192931 GLOBALSTAR M039 1 25961U 99062A 26036.11178030 -.00000060 00000+0 24517-3 0 9995 2 25961 51.9844 279.2655 0002988 127.4528 232.6610 12.62341018209636 GLOBALSTAR M034 1 25962U 99062B 26036.25248634 -.00000059 00000+0 34640-3 0 9995 2 25962 51.9868 125.5474 0014990 122.2937 271.8573 11.79455538165890 GLOBALSTAR M029 1 25963U 99062C 26036.42338814 -.00000089 00000+0 -28850-4 0 9996 2 25963 51.9782 184.0212 0002366 188.0147 205.7297 11.99908103197126 GLOBALSTAR M061 1 25964U 99062D 26036.47914709 -.00000077 00000+0 48007-4 0 9997 2 25964 51.9816 312.0937 0006637 45.0551 125.5317 11.76777353148649 GLOBALSTAR M063 1 26081U 00008A 26036.48457593 -.00000091 00000+0 -12824-3 0 9998 2 26081 51.9920 217.1446 0005349 50.3109 335.0677 11.86180920185268 GLOBALSTAR M062 1 26082U 00008B 26036.21926987 -.00000214 00000+0 -82850-3 0 9991 2 26082 51.9848 130.4949 0006831 244.8970 134.2594 12.43479595525613 GLOBALSTAR M060 1 26083U 00008C 26036.50550314 -.00000001 00000+0 89182-3 0 9999 2 26083 52.0019 122.6732 0003052 226.1498 147.4511 12.17675162180799 GLOBALSTAR M064 1 26084U 00008D 26036.09857524 -.00000033 00000+0 71979-3 0 9997 2 26084 52.0056 314.2469 0001662 121.0923 239.0073 11.88540417194795 GLOBALSTAR M065 1 31571U 07020A 26036.01712097 -.00000083 00000+0 11498-3 0 9997 2 31571 51.9868 237.5996 0010839 102.1066 62.3511 12.62020130862803 GLOBALSTAR M069 1 31573U 07020C 26036.02446168 -.00000058 00000+0 31892-3 0 9995 2 31573 52.0018 266.2011 0000901 214.3990 288.5073 12.23467960862620 GLOBALSTAR M072 1 31574U 07020D 26036.18717486 -.00000063 00000+0 29311-3 0 9996 2 31574 51.9930 91.6662 0001375 79.9870 313.8935 11.91655434859244 GLOBALSTAR M071 1 31576U 07020F 26036.16386567 -.00000055 00000+0 35671-3 0 9995 2 31576 52.0075 297.9919 0000374 141.0913 25.2529 12.18264892523336 GLOBALSTAR M067 1 32263U 07048A 26036.39002332 -.00000063 00000+0 25814-3 0 9996 2 32263 51.9727 73.5517 0001550 122.8455 250.3135 12.40684561838437 GLOBALSTAR M070 1 32264U 07048B 26036.31116748 -.00000091 00000+0 72297-4 0 9995 2 32264 51.9745 138.3046 0000573 110.1307 264.8819 12.62329847843112 GLOBALSTAR M066 1 32265U 07048C 26036.49258177 -.00000090 00000+0 38288-4 0 9999 2 32265 51.9594 75.9705 0005188 127.7188 23.5473 12.30384053844012 GLOBALSTAR M068 1 32266U 07048D 26036.26698509 -.00000086 00000+0 99769-4 0 9998 2 32266 51.9905 311.7434 0000768 332.2269 195.1963 12.62839305847003 GLOBALSTAR M079 1 37188U 10054A 26036.53705542 -.00000087 00000+0 91192-4 0 9996 2 37188 52.0029 149.4316 0001007 100.9413 342.6515 12.62270221705925 GLOBALSTAR M074 1 37189U 10054B 26036.48724955 -.00000090 00000+0 76698-4 0 9998 2 37189 52.0007 148.8706 0000954 118.5571 337.6267 12.62265692706529 GLOBALSTAR M076 1 37190U 10054C 26036.25841126 -.00000095 00000+0 50684-4 0 9997 2 37190 52.0020 149.7593 0001121 114.0822 261.3524 12.62270018706210 GLOBALSTAR M077 1 37191U 10054D 26036.39392965 -.00000059 00000+0 34765-3 0 9996 2 37191 51.9960 154.0066 0001475 112.7212 289.1810 11.68178370705742 GLOBALSTAR M075 1 37192U 10054E 26036.43049310 -.00000109 00000+0 -31425-4 0 9993 2 37192 51.9927 191.3619 0000919 95.9059 282.7117 12.62264071705307 GLOBALSTAR M073 1 37193U 10054F 26036.42948697 -.00000074 00000+0 16607-3 0 9993 2 37193 52.0060 105.3652 0000847 113.1666 259.3415 12.62269219707297 GLOBALSTAR M083 1 37739U 11033A 26036.36358294 -.00000105 00000+0 -88101-5 0 9994 2 37739 51.9867 53.9735 0000580 100.2453 274.3985 12.62266892676301 GLOBALSTAR M088 1 37740U 11033B 26036.29381153 -.00000081 00000+0 12883-3 0 9992 2 37740 52.0238 320.2958 0000572 64.4090 112.6079 12.62260940671832 GLOBALSTAR M091 1 37741U 11033C 26036.14475165 -.00000076 00000+0 15267-3 0 9997 2 37741 52.0000 283.9128 0000884 61.0529 97.4427 12.62269489672600 GLOBALSTAR M085 1 37742U 11033D 26036.49611743 -.00000108 00000+0 -21606-4 0 9992 2 37742 52.0099 234.0177 0001104 73.3430 303.0760 12.62269063673169 GLOBALSTAR M081 1 37743U 11033E 26036.52360431 -.00000097 00000+0 36398-4 0 9992 2 37743 51.9932 236.5190 0001112 84.2040 297.8281 12.62262241673319 GLOBALSTAR M089 1 37744U 11033F 26036.40528229 -.00000112 00000+0 -43123-4 0 9994 2 37744 51.9910 191.0624 0001007 115.2492 268.6737 12.62264101674143 GLOBALSTAR M084 1 38040U 11080A 26036.27818284 -.00000095 00000+0 50855-4 0 9993 2 38040 52.0014 58.8605 0000593 140.9243 324.7437 12.62267652652104 GLOBALSTAR M080 1 38041U 11080B 26036.50004319 -.00000089 00000+0 84302-4 0 9993 2 38041 52.0065 59.8581 0000307 38.4237 125.4960 12.62266051652257 GLOBALSTAR M082 1 38042U 11080C 26036.43744101 -.00000101 00000+0 13942-4 0 9993 2 38042 52.0096 15.5352 0000458 35.1168 134.0287 12.62267179652958 GLOBALSTAR M092 1 38043U 11080D 26036.45588985 -.00000078 00000+0 14621-3 0 9999 2 38043 52.0081 105.8689 0000651 118.4646 254.6455 12.62269956651411 GLOBALSTAR M090 1 38044U 11080E 26036.29949354 -.00000107 00000+0 -17290-4 0 9993 2 38044 52.0147 9.8694 0000522 69.9115 70.7828 12.62266372653054 GLOBALSTAR M086 1 38045U 11080F 26036.32394689 -.00000091 00000+0 70717-4 0 9997 2 38045 51.9921 9.9392 0001447 107.4157 37.4988 12.62282410653003 GLOBALSTAR M097 1 39072U 13005A 26036.40001421 -.00000084 00000+0 11191-3 0 9997 2 39072 52.0049 284.5092 0000962 72.7068 287.3904 12.62268618600269 GLOBALSTAR M093 1 39073U 13005B 26036.37378873 -.00000082 00000+0 12352-3 0 9990 2 39073 52.0102 277.8867 0001219 69.0422 291.0575 12.62272614600216 GLOBALSTAR M094 1 39074U 13005C 26036.45302457 -.00000112 00000+0 -47475-4 0 9995 2 39074 51.9936 191.8911 0001185 90.4082 269.6920 12.62266824601837 GLOBALSTAR M096 1 39075U 13005D 26036.30770943 -.00000103 00000+0 23477-5 0 9995 2 39075 52.0049 241.0315 0001141 74.9673 285.1320 12.62263040600738 GLOBALSTAR M078 1 39076U 13005E 26036.04384715 -.00000027 00000+0 42909-3 0 9999 2 39076 51.9897 326.0280 0001037 9.7743 350.3144 12.62276701599320 GLOBALSTAR M095 1 39077U 13005F 26036.46629144 -.00000080 00000+0 13032-3 0 9998 2 39077 52.0104 322.1595 0000967 43.5166 316.5777 12.62268192599237 GLOBALSTAR M087 1 52888U 22064A 26036.16278215 -.00000081 00000+0 12533-3 0 9990 2 52888 51.9998 104.3961 0000699 97.3885 262.7061 12.62266638174460